Weather Roundup
Issued by NWS Chicago, IL

Home | Current Version | Previous Version | Text Only | Print | Product List | Glossary On
Versions: 1 2 3 4 5 6 7 8 9 10 11 12 13 14 15 16 17 18 19 20 21 22 23 24 25 26 27 28 29 30 31 32 33 34 35 36 37 38 39 40 41 42 43 44 45 46 47 48 49 50
000
NZUS59 KLOT 291510
HRRLOT

CHICAGO AREA WEATHER ROUNDUP
NATIONAL WEATHER SERVICE CHICAGO/ROMEOVILLE IL
900 AM CST MON DEC 29 2014

NOTE: "FAIR" INDICATES FEW OR NO CLOUDS BELOW 12,000 FEET WITH NO
SIGNIFICANT WEATHER AND/OR OBSTRUCTIONS TO VISIBILITY.

* THESE STATIONS ARE NOT UNDER NWS QUALITY CONTROL. THEY ALSO MAY NOT
  REPORT WEATHER SUCH AS PRECIPITATION OR FOG.

ILZ005-006-012>014-019>023-291600-
NORTHEAST ILLINOIS

CITY           SKY/WX    TMP DP  RH WIND       PRES   REMARKS
OHARE          PTSUNNY   26  19  74 N12       30.35R WCI  16
MIDWAY         PTSUNNY   32  24  72 N7        30.34R WCI  26
AURORA         CLOUDY    26  20  77 NE12      30.35R HAZE    WCI  16
LANSING*       CLOUDY    32  26  80 NE12      30.34R WCI  23
JOLIET*        PTSUNNY   28  23  83 N8        30.35R WCI  19
WAUKEGAN       PTSUNNY   22  15  75 N9        30.37R WCI  12
DUPAGE AIRPORT CLOUDY    26  20  77 N10       30.35R WCI  16
WHEELING       PTSUNNY   26  19  74 N10       30.38R WCI  16
KANKAKEE*      MOSUNNY   27  23  86 CALM      30.34R
MORRIS*        CLOUDY    28  25  88 NE3       30.34R
LEWIS AIRPORT* CLOUDY    29  24  81 N12       30.34R WCI  20
NORTHERLY IS     N/A     31  23  72 N16         N/A  WCI  20
$$

WIZ051-052-058>065-066-070>072-291600-
SOUTHEAST WISCONSIN

CITY           SKY/WX    TMP DP  RH WIND       PRES   REMARKS
MILWAUKEE      PTSUNNY   20   9  62 NW7       30.40R WCI  11
KENOSHA*       PTSUNNY   22  14  71 N8        30.38R WCI  12
RACINE*        PTSUNNY   22  13  68 N9        30.40R WCI  12
BURLINGTON     SUNNY     19  13  76 N7        30.39R WCI  10
WAUKESHA       MOSUNNY   16   9  73 N6        30.40R WCI   7
WEST BEND      PTSUNNY   18   9  68 N7        30.40R WCI   8
$$

INZ001>003-010>013-019-020-291600-
NORTHWEST INDIANA

CITY           SKY/WX    TMP DP  RH WIND       PRES   REMARKS
GARY*          CLOUDY    34  23  64 N12G23    30.34R WCI  25
MICHIGAN CITY* NOT AVBL
RENSSELAER*    NOT AVBL
VALPARAISO     CLOUDY    30  24  78 NE9       30.33R WCI  22
$$

LMZ740>746-291600-
SOUTHERN LAKE MICHIGAN

STATION/POSITION TIME  SKY/WX   TEMP WIND        PRES    VSBY
                                AIR  DIR/SP/G
                 (UTC)          (F)  (DEG/KT/KT) (MB)    (MI)
HARRISON CRIB    1500            30   20/ 16/ 19   N/A
BURNHAM HARBOR   1500            31   10/ 11/ 15   N/A
CALUMET HARBOR   1500            32   10/ 13/ 17 1026.1R
BURNS HARBOR     NOT AVBL
MICHIGAN CITY    1500            31   20/ 17/ 21   N/A
$$

ABBREVIATIONS USED IN REMARKS
   TC - TEMPERATURE IN CELSIUS
  WCI - WIND CHILL INDEX
   HX - HEAT INDEX
  VSB - VISIBILITY
$$


USA.gov is the U.S. government's official web portal to all federal, state and local government web resources and services.